Find Starlink 34946

NORAD ID: 65367 Int'l Des: 2025-190 Owner: SPXS Country: US Constellation: starlink operational
LEOCIRCULAR

現在のビュー

3D地球を読み込み中...

About Starlink 34946

Starlink 34946 (NORAD 65367) is a starlink constellation satellite (v2 mini) launched Aug 28, 2025 by SPXS of US. It operates in LEO, CIRCULAR orbit with a mass of 575.00 kg.

Starlink 34946について

説明を読み込み中...

次回通過

Passes for default location (London). Set your location on the main map for personalized predictions.

高度履歴

Loading altitude history...

軌道要素

1 65367U 25190S 26195.57964809 .00019658 00000-0 59166-3 0 9994
2 65367 53.1586 297.2985 0000909 101.8030 258.3075 15.34385895 49206
Epoch: Jul 14, 2026 • Age: 7 hours

現在のステータス

高度 479.6 km
遠地点 / 近地点 N/A
速度 7.63 km/s
衛星直下点 -47.89°S, 79.94°W
打ち上げ日 Aug 28, 2025
運用期間 0.8 years
タイプ internet

技術仕様

分類 Payload
質量 575.00 kg
乾燥質量 530.00 kg
総質量 575.00 kg
長さ 0.30 m
直径 4.10 m
スパン 29.00 m
形状 Box + pan
製造者 SPXS
バスタイプ Starlink V2MO
フェーズステータス In Orbit
所有者/国 SPXS/US

Most Searched